Weather History for KATT - November, 2011

Change the Weather History Date:

Saturday, November 12, 2011

  Actual Average Record
Temperature  
Mean Temperature 67 °F 62 °F  
Max Temperature 80 °F 73 °F 89 °F (1988)
Min Temperature 53 °F 52 °F 24 °F (1950)
Degree Days  
Heating Degree Days 0 5  
Month to date heating degree days 62 46  
Since 1 July heating degree days 91 77  
Cooling Degree Days 2 2  
Month to date cooling degree days 28 38  
Year to date cooling degree days 4112 3103  
Growing Degree Days 17 (Base 50)    
Moisture  
Dew Point 51 °F    
Average Humidity 59    
Maximum Humidity 78    
Minimum Humidity 39    
Precipitation  
Precipitation 0.00 in 0.11 in 1.75 in (1893)
Month to date precipitation 0.09 1.28  
Year to date precipitation 11.93 30.24  
Snow  
Snow 0.00 in - - ()
Month to date snowfall 0.0  
Since 1 July snowfall 0.0  
Since 1 September snowfall 0.0  
Snow Depth 0.00 in    
Sea Level Pressure  
Sea Level Pressure 29.98 in    
Wind  
Wind Speed 7 mph (South)    
Max Wind Speed 17 mph    
Max Gust Speed 29 mph    
Visibility 10 miles    
Events      
T = Trace of Precipitation, MM = Missing Value Source: NWS Daily Summary

Daily Weather History Graph

Daily Weather History Graph

Search for Another Location

Airport or City:

Trip Planner

Search our weather history database for the weather conditions in past years. The results will help you decide how hot, cold, wet, or windy it might be!

Date:

Astronomy

Nov. 12, 2011 Rise Set
Actual Time 6:53 AM CST 5:35 PM CST
Civil Twilight 6:28 AM CST 6:01 PM CST
Nautical Twilight 5:59 AM CST 6:30 PM CST
Astronomical Twilight 5:31 AM CST 6:58 PM CST
Moon 7:00 PM CST (11/12) 8:30 AM CST (11/12)
Length of Visible Light 11h 32m
Length of Day
10h 42m
Full, 97% of the Moon is Illuminated
Nov 12
Full
Nov 18
Last Quarter
Nov 25
New
Dec 2
First Quarter
Dec 10
Full

Hourly Weather History & Observations

Time (CST) Temp. Heat Index Dew Point Humidity Pressure Visibility Wind Dir Wind Speed Gust Speed Precip Events Conditions
12:51 AM 55.0 °F - 39.9 °F 57% 30.06 in 10.0 mi South 4.6 mph - N/A   Clear
1:51 AM 55.9 °F - 42.1 °F 60% 30.04 in 10.0 mi South 8.1 mph 19.6 mph N/A   Clear
2:51 AM 55.0 °F - 43.0 °F 64% 30.02 in 10.0 mi Variable 5.8 mph - N/A   Clear
3:51 AM 55.0 °F - 44.1 °F 67% 30.01 in 10.0 mi Variable 5.8 mph - N/A   Clear
4:51 AM 55.9 °F - 45.0 °F 67% 30.01 in 10.0 mi Variable 3.5 mph - N/A   Clear
5:51 AM 54.0 °F - 46.0 °F 75% 30.02 in 10.0 mi SSE 4.6 mph - N/A   Clear
6:51 AM 54.0 °F - 46.0 °F 75% 30.03 in 10.0 mi Calm Calm - N/A   Clear
7:51 AM 60.1 °F - 50.0 °F 69% 30.04 in 10.0 mi Variable 5.8 mph - N/A   Clear
8:51 AM 63.0 °F - 52.0 °F 67% 30.06 in 10.0 mi South 8.1 mph - N/A   Clear
9:51 AM 66.9 °F - 53.1 °F 61% 30.04 in 10.0 mi South 12.7 mph 24.2 mph N/A   Clear
10:51 AM 68.0 °F - 53.1 °F 59% 30.04 in 10.0 mi South 9.2 mph 20.7 mph N/A   Clear
11:51 AM 72.0 °F - 54.0 °F 53% 30.00 in 10.0 mi SSW 8.1 mph 20.7 mph N/A   Mostly Cloudy
12:51 PM 75.9 °F - 54.0 °F 46% 29.97 in 10.0 mi SSW 16.1 mph 28.8 mph N/A   Partly Cloudy
1:51 PM 78.1 °F - 53.1 °F 42% 29.93 in 10.0 mi South 8.1 mph 21.9 mph N/A   Clear
2:51 PM 80.1 °F 79.9 °F 53.1 °F 39% 29.90 in 10.0 mi South 9.2 mph 21.9 mph N/A   Clear
3:51 PM 78.1 °F - 53.1 °F 42% 29.90 in 10.0 mi SSW 11.5 mph 23.0 mph N/A   Clear
4:51 PM 77.0 °F - 53.1 °F 43% 29.91 in 10.0 mi SSW 8.1 mph - N/A   Clear
5:51 PM 73.9 °F - 53.1 °F 48% 29.92 in 10.0 mi South 6.9 mph - N/A   Clear
6:51 PM 72.0 °F - 54.0 °F 53% 29.94 in 10.0 mi South 4.6 mph - N/A   Clear
7:51 PM 71.1 °F - 55.9 °F 59% 29.94 in 10.0 mi South 8.1 mph - N/A   Clear
8:51 PM 69.1 °F - 57.0 °F 65% 29.95 in 10.0 mi SSE 5.8 mph - N/A   Clear
9:51 PM 68.0 °F - 57.9 °F 70% 29.95 in 10.0 mi Variable 4.6 mph - N/A   Clear
10:51 PM 66.0 °F - 59.0 °F 78% 29.94 in 10.0 mi South 6.9 mph - N/A   Clear
11:51 PM 66.0 °F - 60.1 °F 81% 29.93 in 10.0 mi South 8.1 mph 16.1 mph N/A   Clear